Location: Bannatyne
(13.0833°N, 59.5333°W)
Time: 08:32:54
(UTC+00:00)

Vanguard 2 Rocket - Pass Details

Date: 26 January 2020
Orbit: 554 x 3326 km, 32.9° (Epoch: 08 April)

Event Time Altitude Azimuth Distance (km) Brightness Sun altitude
Rises 17:27:15 0° 278° (W) 5,566 11.1 53.0°
Reaches altitude 10° 17:31:04 10° 269° (W) 4,929 11.1 52.5°
Maximum altitude 17:43:54 32° 212° (SSW) 4,273 12.1 50.8°
Drops below altitude 10° 18:00:31 10° 157° (SSE) 6,281 11.5 48.2°
Sets 18:06:26 0° 147° (SSE) 7,238 11.6 47.3°
